Regional Weather Roundup
Issued by NWS

Home | Current Version | Previous Version | Graphics & Text | Print | Product List | Glossary Off
Versions: 1 2 3 4 5 6 7 8 9 10 11 12 13 14 15 16 17 18 19 20 21 22 23 24 25 26 27 28 29 30 31 32 33 34 35 36 37 38 39 40 41 42 43 44 45 46 47 48 49 50

000
ASUS43 KDTX 231801
RWRMI
MICHIGAN HOURLY REGIONAL WEATHER ROUNDUP
NATIONAL WEATHER SERVICE DETROIT/PONTIAC MI
200 PM EDT TUE AUG 23 2016

NOTE: "FAIR" INDICATES FEW OR NO CLOUDS BELOW 12,000 FEET WITH NO
SIGNIFICANT WEATHER AND/OR OBSTRUCTION TO VISIBILITY.

MIZ047>049-052>055-059>063-066>070-074>076-081>083-231900-
SOUTHEAST LOWER MICHIGAN

CITY           SKY/WX    TMP DP  RH WIND       PRES   REMARKS
ADRIAN         CLOUDY    77  60  55 SW8       30.27F
6HR MIN TEMP:  57; 6HR MAX TEMP:  78;

ALMA           MOSUNNY   78  63  60 SW13G18   30.23F
ANN ARBOR      MOSUNNY   80  58  46 SW14      30.26F
BAD AXE        SUNNY     77  59  53 W12G20    30.23F
6HR MIN TEMP:  60; 6HR MAX TEMP:  78;

CARO           SUNNY     79  61  54 SW13G18   30.22F
DETROIT CITY   SUNNY     79  58  48 SW12G18   30.25F
6HR MIN TEMP:  64; 6HR MAX TEMP:  79;

DETROIT        MOSUNNY   80  58  46 MISG      30.25F
FLINT          MOSUNNY   82  59  45 SW10G17   30.25S
6HR MIN TEMP:  64; 6HR MAX TEMP:  82;

GROSSE ILE     SUNNY     78  62  56 S12       30.26S
6HR MIN TEMP:  65; 6HR MAX TEMP:  78;

HILLSDALE      MOSUNNY   76  60  56 S8        30.27F
6HR MIN TEMP:  51; 6HR MAX TEMP:  84;

HOWELL         MOSUNNY   77  58  51 SW7       30.26F
6HR MIN TEMP:  61; 6HR MAX TEMP:  79;


CITY           SKY/WX    TMP DP  RH WIND       PRES   REMARKS
JACKSON        CLOUDY    76  57  51 SW12      30.26F
6HR MIN TEMP:  60; 6HR MAX TEMP:  77;

LAMBERTVILLE   MOSUNNY   80  59  48 SW8       30.27F
6HR MIN TEMP:  58; 6HR MAX TEMP:  81;

LANSING        MOSUNNY   78  57  48 SW13      30.25F
6HR MIN TEMP:  61; 6HR MAX TEMP:  79;

LAPEER         NOT AVBL
MASON          MOSUNNY   78  58  51 SW6       30.26S
MONROE         MOSUNNY   79  63  58 W8        30.26F
6HR MIN TEMP:  58; 6HR MAX TEMP:  80;

MT. CLEMENS    MOSUNNY   82  59  45 S13       30.23F
6HR MIN TEMP:  65; 6HR MAX TEMP:  82;

PONTIAC        MOSUNNY   77  57  50 SW13G20   30.25F
6HR MIN TEMP:  61; 6HR MAX TEMP:  78;

PORT HURON     SUNNY     77  61  57 S12       30.25F
TRI CITIES     SUNNY     79  61  53 SW18G25   30.23F
6HR MIN TEMP:  61; 6HR MAX TEMP:  79;

MIDLAND        FAIR      80  60  50 SW15G21   30.20F
6HR MIN TEMP:  61; 6HR MAX TEMP:  80;

TROY           SUNNY     81  53  37 S8        30.27F
SAGINAW HB     MOSUNNY   79  59  50 SW15G21   30.22F
$$
MIZ043>046-050>051-056>058-064>065-071>073-077>080-231900-
SOUTHWEST LOWER MICHIGAN

CITY           SKY/WX    TMP DP  RH WIND       PRES   REMARKS
BATTLE CREEK   PTSUNNY   75  60  59 SW10      30.25F
6HR MIN TEMP:  58; 6HR MAX TEMP:  76;

BENTON HARBOR  MOSUNNY   79  60  52 SW12      30.22F
6HR MIN TEMP:  61; 6HR MAX TEMP:  79;

BIG RAPIDS     MOSUNNY   79  60  52 SW9       30.20F
6HR MIN TEMP:  58; 6HR MAX TEMP:  79;

COLDWATER      PTSUNNY   77  59  53 S8        30.26F
6HR MIN TEMP:  58; 6HR MAX TEMP:  78;

FREMONT        FAIR      76  54  46 SW9G18    30.21F
HOLLAND        SUNNY     78  60  53 SW14      30.23F
6HR MIN TEMP:  60; 6HR MAX TEMP:  79;

GRAND RAPIDS   PTSUNNY   78  58  49 SW10      30.23F
6HR MIN TEMP:  59; 6HR MAX TEMP:  78;

IONIA          PTSUNNY   77  56  47 S8        30.23F
6HR MIN TEMP:  60; 6HR MAX TEMP:  78;

KALAMAZOO      MOSUNNY   79  59  50 SW13      30.24F
6HR MIN TEMP:  61; 6HR MAX TEMP:  79;

LUDINGTON      SUNNY     77  66  68 SW20G25   30.17F
6HR MIN TEMP:  60; 6HR MAX TEMP:  78;

MARSHALL       MOSUNNY   79  59  50 S10       30.25F
MOUNT PLEASANT MOSUNNY   80  59  48 SW13G22   30.21F
6HR MIN TEMP:  63; 6HR MAX TEMP:  80;

MUSKEGON       PTSUNNY   79  63  57 SW15G23   30.21F
6HR MIN TEMP:  64; 6HR MAX TEMP:  80;

SOUTH HAVEN    MOSUNNY   80  61  52 SW9G17    30.22F
$$
MIZ016>042-231900-
NORTHERN LOWER MICHIGAN

CITY           SKY/WX    TMP DP  RH WIND       PRES   REMARKS
ALPENA         SUNNY     84  58  40 S12G20    30.14F
6HR MIN TEMP:  61; 6HR MAX TEMP:  84;

BEAVER ISLAND  SUNNY     77  65  66 SW15G24   30.12R
6HR MIN TEMP:  70; 6HR MAX TEMP:  77;

BELLAIRE       SUNNY     81  60  48 W8        30.14F
6HR MIN TEMP:  66; 6HR MAX TEMP:  81;

CADILLAC       SUNNY     78  59  52 SW15      30.18F
CHARLEVOIX     MOSUNNY   81  62  53 SW13G20   30.16S
6HR MIN TEMP:  69; 6HR MAX TEMP:  81;

FRANKFORT      SUNNY     77  63  61 S16G24    30.16F
GAYLORD        SUNNY     81  58  45 SW15      30.16F
6HR MIN TEMP:  63; 6HR MAX TEMP:  81;

GRAYLING       SUNNY     81  60  49 S12G18    30.18F
6HR MIN TEMP:  64; 6HR MAX TEMP:  82;

HARBOR SPRINGS SUNNY     80  65  61 W8G17     30.12F
HOUGHTON LAKE  SUNNY     79  59  50 SW13G18   30.19F
6HR MIN TEMP:  63; 6HR MAX TEMP:  79;

MANISTEE       PTSUNNY   78  61  55 SW14G21   30.16F
OSCODA         MOSUNNY   82  62  51 SW12      30.17F
6HR MIN TEMP:  61; 6HR MAX TEMP:  82;

PELLSTON       SUNNY     82  60  47 SW13G24   30.12S
6HR MIN TEMP:  68; 6HR MAX TEMP:  82;

ROGERS CITY    SUNNY     84  59  43 SW12      30.13S
TRAVERSE CITY  MOSUNNY   81  60  48 SW12G21   30.13F
6HR MIN TEMP:  67; 6HR MAX TEMP:  82;

$$
MIZ007>008-015-231900-
EASTERN UPPER MICHIGAN

CITY           SKY/WX    TMP DP  RH WIND       PRES   REMARKS
KINROSS        SUNNY     78  62  57 W15G23    30.09F
6HR MIN TEMP:  66; 6HR MAX TEMP:  79;

MACKINAC ISLAN SUNNY     76  62  61 SW13G25   30.11S
6HR MIN TEMP:  70; 6HR MAX TEMP:  77;

NEWBERRY       SUNNY     79  63  57 S16       30.08S
6HR MIN TEMP:  67; 6HR MAX TEMP:  79; 6HR PCP:  0.01;

S. S. MARIE    MOSUNNY   80  64  58 S16G22    30.07S
6HR MIN TEMP:  68; 6HR MAX TEMP:  81;

$$
MIZ004>006-011>014-085-231900-
CENTRAL UPPER MICHIGAN

CITY           SKY/WX    TMP DP  RH WIND       PRES   REMARKS
MANISTIQUE     SUNNY     73  65  76 S14G23    30.08F
6HR MIN TEMP:  67; 6HR MAX TEMP:  74;

ESCANABA       SUNNY     75  64  68 S17       30.07S
6HR MIN TEMP:  67; 6HR MAX TEMP:  75;

MENOMINEE      SUNNY    N/A N/A N/A SW13G20   30.09F
SAWYER-GWINN   SUNNY     79  63  57 SW17G23   30.05F
$$
MIZ001>003-009>011-084-231900-
WESTERN UPPER MICHIGAN

CITY           SKY/WX    TMP DP  RH WIND       PRES   REMARKS
IRON MOUNTAIN  SUNNY     79  62  56 S13       30.06F
6HR MIN TEMP:  61; 6HR MAX TEMP:  80;

HOUGHTON       SUNNY     81  64  56 S9        29.96F
6HR MIN TEMP:  66; 6HR MAX TEMP:  82;

COPPER HARBOR    N/A     78  63  59 SW8       29.95F
6HR MIN TEMP:  68; 6HR MAX TEMP:  78;

IRONWOOD       SUNNY     81  64  56 S14G23    29.96S
6HR MIN TEMP:  67; 6HR MAX TEMP:  81; 6HR PCP:  0.01;

$$

ABBREVIATIONS USED IN REMARKS
   TC - TEMPERATURE IN CELSIUS
  WCI - WIND CHILL INDEX
   HX - HEAT INDEX
  VSB - VISIBILITY





USA.gov is the U.S. government's official web portal to all federal, state and local government web resources and services.